Weather History for Amarillo, TX

Change the Weather History Date:

Tuesday, January 29, 2013

  Actual Average Record
Temperature  
Mean Temperature 42 °F 38 °F  
Max Temperature 56 °F 52 °F 76 °F (1911)
Min Temperature 27 °F 24 °F -6 °F (1966)
Degree Days  
Heating Degree Days 23 27  
Month to date heating degree days 755 814  
Since 1 July heating degree days 2112 2531  
Cooling Degree Days 0 0  
Month to date cooling degree days 0 0  
Year to date cooling degree days 0 0  
Moisture  
Dew Point 26 °F    
Average Humidity 56    
Maximum Humidity 92    
Minimum Humidity 19    
Precipitation  
Precipitation 0.08 in 0.02 in 1.57 in (1999)
Month to date precipitation 0.76 0.66  
Year to date precipitation 0.76 0.66  
Snow  
Snow 1.70 in 0.20 in 5.90 in (1999)
Month to date snowfall 1.9 4.3  
Since 1 July snowfall 4.0 10.7  
Snow Depth 0.00 in    
Sea Level Pressure  
Sea Level Pressure 29.63 in    
Wind  
Wind Speed 17 mph (NW)    
Max Wind Speed 31 mph    
Max Gust Speed 39 mph    
Visibility 6 miles    
Events Fog , Snow    
T = Trace of Precipitation, MM = Missing Value Source: NWS Daily Summary

Daily Weather History Graph

Daily Weather History Graph

Search for Another Location

Airport:

Trip Planner

Search our weather history database for the weather conditions in past years. The results will help you decide how hot, cold, wet, or windy it might be!

Date:

Astronomy

Jan. 29, 2013 Rise Set
Actual Time 7:48 AM CST 6:12 PM CST
Civil Twilight 7:21 AM CST 6:39 PM CST
Nautical Twilight 6:50 AM CST 7:09 PM CST
Astronomical Twilight 6:20 AM CST 7:39 PM CST
Moon 9:01 PM CST (1/29) 8:53 AM CST (1/29)
Length of Visible Light 11h 18m
Length of Day
10h 24m
Waning Gibbous, 93% of the Moon is Illuminated
Jan 29
Waning Gibbous
Feb 3
Last Quarter
Feb 10
New
Feb 17
First Quarter
Feb 25
Full

Hourly Weather History & Observations

Time (CST) Temp. Windchill Dew Point Humidity Pressure Visibility Wind Dir Wind Speed Gust Speed Precip Events Conditions
12:53 AM 52.0 °F - 28.0 °F 40% 29.61 in 10.0 mi WSW 10.4 mph - N/A   Mostly Cloudy
1:53 AM 51.1 °F - 28.0 °F 41% 29.61 in 10.0 mi SSW 10.4 mph - N/A   Mostly Cloudy
2:53 AM 50.0 °F - 32.0 °F 50% 29.63 in 10.0 mi WSW 13.8 mph - N/A   Overcast
3:53 AM 53.1 °F - 33.1 °F 47% 29.59 in 10.0 mi West 16.1 mph 21.9 mph N/A   Overcast
4:53 AM 50.0 °F - 30.9 °F 48% 29.58 in 10.0 mi West 13.8 mph - N/A   Scattered Clouds
5:53 AM 46.4 °F 41.5 °F 30.2 °F 53% 29.65 in 10.0 mi WSW 10.4 mph - N/A   Scattered Clouds
6:53 AM 48.9 °F - 30.0 °F 48% 29.59 in 10.0 mi West 16.1 mph - N/A   Overcast
7:53 AM 42.1 °F 35.7 °F 28.0 °F 58% 29.61 in 10.0 mi WSW 11.5 mph - N/A   Partly Cloudy
8:53 AM 46.9 °F - 24.1 °F 41% 29.58 in 10.0 mi WSW 12.7 mph - N/A   Overcast
9:53 AM 46.0 °F 39.9 °F 24.1 °F 42% 29.58 in 10.0 mi SW 13.8 mph - N/A   Overcast
10:53 AM 48.9 °F - 21.0 °F 33% 29.55 in 10.0 mi SW 16.1 mph - N/A   Overcast
11:53 AM 50.0 °F - 19.9 °F 31% 29.52 in 10.0 mi SW 24.2 mph 31.1 mph N/A   Overcast
12:53 PM 50.0 °F - 17.1 °F 27% 29.50 in 10.0 mi SW 26.5 mph 31.1 mph N/A   Scattered Clouds
1:53 PM 51.1 °F - 15.1 °F 24% 29.48 in 10.0 mi WSW 21.9 mph 26.5 mph N/A   Clear
2:53 PM 52.0 °F - 15.1 °F 23% 29.46 in 10.0 mi West 18.4 mph 28.8 mph N/A   Clear
3:53 PM 53.1 °F - 12.0 °F 20% 29.44 in 10.0 mi WSW 18.4 mph 25.3 mph N/A   Clear
4:22 PM 51.8 °F - 10.4 °F 19% 29.52 in 10.0 mi NE 18.4 mph 28.8 mph N/A   Clear
4:53 PM 41.0 °F 30.2 °F 30.9 °F 67% 29.51 in 9.0 mi NNE 27.6 mph 39.1 mph N/A   Mostly Cloudy
5:53 PM 36.0 °F 25.3 °F 30.0 °F 79% 29.57 in 3.0 mi North 19.6 mph 26.5 mph 0.00 in Snow Light Snow
5:55 PM 35.6 °F 24.8 °F 30.2 °F 81% 29.59 in 2.5 mi North 19.6 mph 26.5 mph 0.00 in Snow Light Snow
6:03 PM 35.6 °F 24.5 °F 30.2 °F 81% 29.60 in 3.0 mi North 20.7 mph 28.8 mph 0.00 in Snow Light Snow
6:07 PM 35.6 °F 24.5 °F 30.2 °F 81% 29.60 in 1.0 mi North 20.7 mph 26.5 mph 0.00 in Snow Light Snow
6:21 PM 33.8 °F 22.8 °F 30.2 °F 87% 29.63 in 0.5 mi North 18.4 mph 27.6 mph 0.00 in Snow Light Snow
6:36 PM 33.8 °F 21.3 °F 30.2 °F 87% 29.65 in 0.5 mi NW 24.2 mph 35.7 mph 0.02 in Fog , Snow Snow
6:39 PM 32.0 °F 19.2 °F 30.2 °F 93% 29.66 in 0.2 mi NW 23.0 mph 35.7 mph 0.02 in Fog , Snow Snow
6:53 PM 32.0 °F 22.1 °F 30.0 °F 92% 29.65 in 0.2 mi NNW 13.8 mph 33.4 mph 0.04 in Fog , Snow Snow
7:21 PM 30.2 °F 15.7 °F 28.4 °F 93% 29.67 in 0.2 mi North 27.6 mph 36.8 mph 0.02 in Fog , Snow Snow
7:53 PM 30.0 °F 16.0 °F 27.0 °F 88% 29.70 in 0.2 mi North 25.3 mph 33.4 mph 0.03 in Fog , Snow Snow
8:06 PM 30.2 °F 16.8 °F 26.6 °F 86% 29.71 in 1.2 mi NNW 23.0 mph 32.2 mph 0.00 in Snow Light Snow
8:21 PM 30.2 °F 16.8 °F 26.6 °F 86% 29.72 in 2.0 mi NNW 23.0 mph 29.9 mph 0.00 in Snow Light Snow
8:24 PM 30.2 °F 16.8 °F 26.6 °F 86% 29.72 in 1.8 mi NNW 23.0 mph 31.1 mph 0.00 in Snow Light Snow
8:32 PM 30.2 °F 16.8 °F 26.6 °F 86% 29.73 in 1.2 mi NNW 23.0 mph - 0.00 in Snow Light Snow
8:51 PM 30.2 °F 18.1 °F 26.6 °F 86% 29.74 in 1.5 mi NNW 18.4 mph 25.3 mph 0.00 in Snow Light Snow
8:53 PM 30.0 °F 17.9 °F 27.0 °F 88% 29.73 in 1.5 mi NNW 18.4 mph - 0.00 in Snow Light Snow
9:06 PM 28.4 °F 14.4 °F 26.6 °F 93% 29.74 in 1.5 mi NNW 23.0 mph - 0.01 in Snow Light Snow
9:16 PM 28.4 °F 16.2 °F 26.6 °F 93% 29.75 in 0.8 mi NNW 17.3 mph 25.3 mph 0.01 in Snow Light Snow
9:27 PM 28.4 °F 14.7 °F 26.6 °F 93% 29.76 in 1.0 mi NNW 21.9 mph 27.6 mph 0.01 in Snow Light Snow
9:37 PM 30.2 °F 17.8 °F 24.8 °F 80% 29.76 in 2.5 mi NNW 19.6 mph 26.5 mph 0.01 in Snow Light Snow
9:41 PM 30.2 °F 18.1 °F 24.8 °F 80% 29.76 in 4.0 mi NNW 18.4 mph 26.5 mph 0.01 in Snow Light Snow
9:53 PM 30.0 °F 18.3 °F 24.1 °F 79% 29.77 in 9.0 mi NNW 17.3 mph 27.6 mph 0.01 in Snow Light Snow
10:53 PM 28.9 °F 16.9 °F 21.0 °F 72% 29.79 in 10.0 mi NW 17.3 mph 26.5 mph 0.00 in   Overcast
11:53 PM 27.0 °F 14.7 °F 21.0 °F 78% 29.81 in 10.0 mi NW 16.1 mph 24.2 mph N/A   Clear